When you browse on this site, cookies collect data to enhance your experience and personalize the content and advertising you see.
Visit our Privacy Policy to learn more. By continuing to use the site, you agree to this use of cookies and data.
  • In Czech Republic
  • List of Countries
  • For 7 days
  • Water Temperature
  • Satellite Maps
  • Weather Map
  • Weather Widgets
  • user-avatar
    Login

    Hourly Weather Osov

    Today, 21 May, Tuesday

    Time Temperature Precipitation Wind Pressure Humidity
    00:00 +17°C° 0 mm 4 mps 748 mmHg 75%
    01:00 +17°C° 0 mm 4 mps 748 mmHg 76%
    02:00 +15°C° 0 mm 4 mps 748 mmHg 76%
    03:00 +15°C° 0 mm 4 mps 748 mmHg 76%
    04:00 +15°C° 0 mm 4 mps 748 mmHg 76%
    05:00 +14°C° 0 mm 4 mps 748 mmHg 76%
    06:00 +16°C° 0 mm 5 mps 748 mmHg 71%
    07:00 +17°C° 0 mm 5 mps 748 mmHg 66%
    08:00 +20°C° 0 mm 6 mps 748 mmHg 60%
    09:00 +21°C° 0 mm 6 mps 747 mmHg 57%
    10:00 +22°C° 0 mm 6 mps 747 mmHg 54%
    11:00 +23°C° 0 mm 6 mps 747 mmHg 52%
    12:00 +24°C° 0 mm 6 mps 747 mmHg 52%
    13:00 +24°C° 0 mm 6 mps 747 mmHg 52%
    14:00 +26°C° 0 mm 5 mps 746 mmHg 53%
    15:00 +23°C° 0.9 mm 5 mps 746 mmHg 63%
    16:00 +21°C° 0.9 mm 5 mps 745 mmHg 73%
    17:00 +19°C° 0.9 mm 5 mps 745 mmHg 83%
    18:00 +19°C° 0.2 mm 4 mps 745 mmHg 85%
    19:00 +18°C° 0.2 mm 4 mps 745 mmHg 88%
    20:00 +17°C° 0.2 mm 4 mps 744 mmHg 91%
    21:00 +17°C° 0 mm 4 mps 744 mmHg 92%
    22:00 +15°C° 0 mm 4 mps 744 mmHg 93%
    23:00 +14°C° 0 mm 4 mps 744 mmHg 94%

    Tomorrow, 22 May, Wednesday

    Time Temperature Precipitation Wind Pressure Humidity
    00:00 +14°C° 0 mm 3 mps 744 mmHg 95%
    01:00 +14°C° 0 mm 3 mps 744 mmHg 95%
    02:00 +13°C° 0 mm 3 mps 743 mmHg 96%
    03:00 +13°C° 0 mm 3 mps 743 mmHg 97%
    04:00 +13°C° 0 mm 3 mps 743 mmHg 97%
    05:00 +14°C° 0 mm 2 mps 743 mmHg 98%
    06:00 +15°C° 0 mm 2 mps 743 mmHg 91%
    07:00 +17°C° 0 mm 2 mps 743 mmHg 85%
    08:00 +19°C° 0 mm 2 mps 743 mmHg 79%
    09:00 +20°C° 0 mm 2 mps 743 mmHg 70%
    10:00 +23°C° 0 mm 2 mps 743 mmHg 61%
    11:00 +24°C° 0 mm 2 mps 743 mmHg 52%
    12:00 +25°C° 0 mm 2 mps 742 mmHg 50%
    13:00 +25°C° 0 mm 2 mps 742 mmHg 48%
    14:00 +26°C° 0 mm 2 mps 742 mmHg 46%
    15:00 +25°C° 0.3 mm 2 mps 742 mmHg 53%
    16:00 +24°C° 0.3 mm 2 mps 741 mmHg 60%
    17:00 +23°C° 0.3 mm 2 mps 741 mmHg 66%
    18:00 +22°C° 0 mm 1 mps 741 mmHg 71%
    19:00 +20°C° 0 mm 1 mps 741 mmHg 76%
    20:00 +19°C° 0 mm 1 mps 741 mmHg 80%
    21:00 +18°C° 0 mm 1 mps 741 mmHg 82%
    22:00 +16°C° 0 mm 1 mps 741 mmHg 83%
    23:00 +16°C° 0 mm 1 mps 741 mmHg 85%

    Day after tomorrow, 23 May, Thursday

    Time Temperature Precipitation Wind Pressure Humidity
    00:00 +15°C° 0 mm 1 mps 741 mmHg 85%
    01:00 +15°C° 0 mm 1 mps 741 mmHg 86%
    02:00 +13°C° 0 mm 0 mps 741 mmHg 87%
    03:00 +14°C° 0 mm 0 mps 741 mmHg 86%
    04:00 +15°C° 0 mm 1 mps 741 mmHg 86%
    05:00 +15°C° 0 mm 1 mps 741 mmHg 85%
    06:00 +18°C° 0 mm 1 mps 741 mmHg 79%
    07:00 +20°C° 0 mm 1 mps 741 mmHg 72%
    08:00 +22°C° 0 mm 1 mps 741 mmHg 66%
    09:00 +23°C° 0.2 mm 1 mps 741 mmHg 60%
    10:00 +24°C° 0.2 mm 1 mps 741 mmHg 55%
    11:00 +25°C° 0.2 mm 1 mps 741 mmHg 49%
    12:00 +26°C° 0 mm 2 mps 741 mmHg 48%
    13:00 +26°C° 0 mm 2 mps 741 mmHg 48%
    14:00 +26°C° 0 mm 2 mps 741 mmHg 48%
    15:00 +26°C° 0 mm 2 mps 741 mmHg 51%
    16:00 +25°C° 0 mm 2 mps 740 mmHg 53%
    17:00 +25°C° 0 mm 1 mps 740 mmHg 56%
    18:00 +24°C° 0 mm 1 mps 741 mmHg 59%
    19:00 +22°C° 0 mm 1 mps 741 mmHg 63%
    20:00 +21°C° 0 mm 1 mps 741 mmHg 66%
    21:00 +20°C° 0 mm 1 mps 741 mmHg 69%
    22:00 +19°C° 0 mm 1 mps 741 mmHg 72%
    23:00 +16°C° 0 mm 0 mps 741 mmHg 75%

    24 May, Friday

    Time Temperature Precipitation Wind Pressure Humidity
    00:00 +15°C° 0 mm 0 mps 741 mmHg 76%
    01:00 +16°C° 0 mm 1 mps 741 mmHg 78%
    02:00 +15°C° 0 mm 1 mps 741 mmHg 79%
    03:00 +16°C° 0 mm 1 mps 741 mmHg 79%
    04:00 +16°C° 0 mm 1 mps 741 mmHg 79%
    05:00 +16°C° 0 mm 1 mps 741 mmHg 79%
    06:00 +19°C° 0 mm 1 mps 742 mmHg 73%
    07:00 +21°C° 0 mm 1 mps 742 mmHg 66%
    08:00 +23°C° 0 mm 1 mps 742 mmHg 60%
    09:00 +24°C° 0 mm 1 mps 742 mmHg 55%
    10:00 +26°C° 0 mm 1 mps 742 mmHg 50%
    11:00 +27°C° 0 mm 2 mps 742 mmHg 45%
    12:00 +27°C° 0 mm 2 mps 742 mmHg 45%
    13:00 +27°C° 0 mm 2 mps 741 mmHg 45%
    14:00 +27°C° 0 mm 2 mps 741 mmHg 45%
    15:00 +26°C° 0 mm 2 mps 741 mmHg 50%
    16:00 +25°C° 0 mm 2 mps 741 mmHg 55%
    17:00 +24°C° 0 mm 1 mps 741 mmHg 60%
    18:00 +23°C° 0 mm 2 mps 741 mmHg 65%
    19:00 +21°C° 0 mm 2 mps 741 mmHg 71%
    20:00 +19°C° 0 mm 3 mps 741 mmHg 76%
    21:00 +18°C° 1.3 mm 3 mps 740 mmHg 82%
    22:00 +17°C° 1.3 mm 3 mps 740 mmHg 87%
    23:00 +16°C° 1.3 mm 3 mps 740 mmHg 93%

    25 May, Saturday

    Time Temperature Precipitation Wind Pressure Humidity
    00:00 +16°C° 0.6 mm 2 mps 740 mmHg 92%
    01:00 +16°C° 0.6 mm 1 mps 740 mmHg 91%
    02:00 +16°C° 0.6 mm 1 mps 740 mmHg 90%
    03:00 +16°C° 0 mm 1 mps 739 mmHg 90%
    04:00 +16°C° 0 mm 1 mps 739 mmHg 89%
    05:00 +16°C° 0 mm 1 mps 739 mmHg 89%
    06:00 +19°C° 0.8 mm 1 mps 739 mmHg 85%
    07:00 +20°C° 0.8 mm 1 mps 739 mmHg 81%
    08:00 +20°C° 0.8 mm 2 mps 739 mmHg 77%
    09:00 +20°C° 0.9 mm 2 mps 739 mmHg 78%
    10:00 +20°C° 0.9 mm 3 mps 738 mmHg 78%
    11:00 +20°C° 0.9 mm 3 mps 738 mmHg 79%
    12:00 +20°C° 0.3 mm 3 mps 738 mmHg 75%
    13:00 +21°C° 0.3 mm 3 mps 738 mmHg 72%
    14:00 +21°C° 0.3 mm 3 mps 738 mmHg 68%
    15:00 +21°C° 0.6 mm 3 mps 738 mmHg 72%
    16:00 +20°C° 0.6 mm 3 mps 738 mmHg 76%
    17:00 +19°C° 0.6 mm 4 mps 738 mmHg 81%
    18:00 +18°C° 0.3 mm 3 mps 738 mmHg 83%
    19:00 +17°C° 0.3 mm 2 mps 738 mmHg 85%
    20:00 +16°C° 0.3 mm 2 mps 738 mmHg 87%
    21:00 +15°C° 0 mm 2 mps 738 mmHg 88%
    22:00 +14°C° 0 mm 2 mps 738 mmHg 88%
    23:00 +12°C° 0 mm 3 mps 738 mmHg 88%

    26 May, Sunday

    Time Temperature Precipitation Wind Pressure Humidity
    00:00 +12°C° 0 mm 3 mps 738 mmHg 90%
    01:00 +11°C° 0 mm 3 mps 738 mmHg 93%
    02:00 +11°C° 0 mm 3 mps 739 mmHg 95%
    03:00 +11°C° 0 mm 3 mps 739 mmHg 94%
    04:00 +11°C° 0 mm 3 mps 739 mmHg 93%
    05:00 +10°C° 0 mm 4 mps 739 mmHg 93%
    06:00 +11°C° 0 mm 4 mps 739 mmHg 86%
    07:00 +12°C° 0 mm 4 mps 740 mmHg 79%
    08:00 +13°C° 0 mm 4 mps 740 mmHg 72%
    09:00 +14°C° 0 mm 5 mps 740 mmHg 69%
    10:00 +14°C° 0 mm 5 mps 740 mmHg 67%
    11:00 +15°C° 0 mm 5 mps 740 mmHg 65%
    12:00 +15°C° 0 mm 5 mps 740 mmHg 65%
    13:00 +15°C° 0 mm 5 mps 740 mmHg 65%
    14:00 +15°C° 0 mm 5 mps 740 mmHg 65%
    15:00 +15°C° 0.1 mm 5 mps 739 mmHg 66%
    16:00 +14°C° 0.1 mm 4 mps 739 mmHg 67%
    17:00 +14°C° 0.1 mm 4 mps 739 mmHg 68%
    18:00 +13°C° 0 mm 4 mps 739 mmHg 72%
    19:00 +12°C° 0 mm 4 mps 739 mmHg 76%
    20:00 +12°C° 0 mm 4 mps 739 mmHg 79%
    21:00 +11°C° 0 mm 4 mps 739 mmHg 83%
    22:00 +11°C° 0 mm 4 mps 739 mmHg 86%
    23:00 +10°C° 0 mm 4 mps 739 mmHg 90%
    Show more